ロニオス彗星

201P/LONEOS (2021)

English version
Home page
Updated on November 4, 2020

---------------------------------------------------------------------

・ プロフィール

・ 軌道要素

Epoch 2021 May 26.0 TT = JDT 2459360.5
T 2021 May 26.67498 TT                                  MPCW
q   1.2173732            (2000.0)            P               Q
n   0.16049466     Peri.   41.54360     +0.48146294     -0.87581492
a   3.3534794      Node    19.74881     +0.77545787     +0.40769310
e   0.6369821      Incl.    5.73896     +0.40848321     +0.25833033
P   6.14
From 862 observations 2001 Aug. 9-2015 Mar. 20, mean residual 0".7.
     Nongravitational parameters A1 = +0.09, A2 = -0.0069.

・ 星図

・ 光度変化

        m1 = 12.5 + 5 logΔ + 15.0 log r

---------------------------------------------------------------------

軌道要素はM.P.E.C. 2015-G03に掲載されたものです。
星図はステラナビゲータ Ver.10 (アストロアーツ) で作成したものです。
光度グラフはComet for Windowsで作成したものです。

---------------------------------------------------------------------

Copyright(C) Seiichi Yoshida (comet@aerith.net). All rights reserved.